Dati Storici

Data ora Umidita' aria (%) Temperatura aria (°C) Rad globale (W/m²) Gonioanemometro (°) Tacoanemometro (m/s) Pioggia (mm)
02-11-2012 14:50 65.7 % 16.486 377.939 174.14 1.524 0
02-11-2012 14:40 66.4 % 16.455 400.234 213.409 1.363 0
02-11-2012 14:30 67 % 16.798 418.77 223.538 0.662 0
02-11-2012 14:20 67.8 % 16.058 420.85 174.993 1.686 0
02-11-2012 14:10 66.9 % 15.873 443.973 179.98 1.545 0
02-11-2012 14:00 65.8 % 15.845 441.821 295.38 2.096 0
02-11-2012 13:50 67.2 % 16.005 473.602 245.471 1.812 0
02-11-2012 13:40 67.9 % 15.604 141.436 192.098 1.109 0
02-11-2012 13:30 67.2 % 16.304 490.542 214.084 1.206 0
02-11-2012 13:20 64.9 % 16.107 477.386 220.84 2.216 0
02-11-2012 13:10 63.9 % 16.419 485.737 265.485 0.182 0
02-11-2012 13:00 63.7 % 16.773 487.208 191.143 1.25 0
02-11-2012 12:50 62 % 15.935 495.477 211.258 1.63 0
02-11-2012 12:40 62.1 % 16.779 489.478 279.935 0.423 0
02-11-2012 12:30 63.1 % 17.248 489.733 84.248 0.21 0
02-11-2012 12:20 66 % 16.76 491.144 145.069 0.521 0
02-11-2012 12:10 69.9 % 15.714 484.589 117.886 0.278 0
02-11-2012 12:00 71.1 % 15.565 473.357 334.662 0.488 0
02-11-2012 11:50 75.1 % 14.101 474.837 298.822 0.574 0
02-11-2012 11:40 75.2 % 14.114 560.286 314.02 1.617 0

I dati sono presentati in modo automatico a scopo informativo. In seguito a verifica i dati possono subire modifiche o essere invalidati e non riportati negli archivi definitivi.